SAOCOM 1A (43641 NORAD) Tracking and Keplerian Element Data

This shows tracking and keplerian element data for the satellite.

Feedback or suggestion? Click here.




ElementValue
Catalog43641
NameSAOCOM 1A
Epoch Orbit3383
Epoch Day144.47762558
Epoch Year2019
RAAN331.1879
Inclination97.8895
Eccentricity0.0001522
Argument of Perigee79.1802
Mean Anonmoly280.9594
Mean Motion14.82151553
Decay Rate-8E-08
L11 43641U 18076A 19144.47762558 -.00000008 00000-0 55387-5 0 9995
L22 43641 97.8895 331.1879 0001522 79.1802 280.9594 14.82151553 33834

Live tracking and technical data element details for SAOCOM 1A (NORAD 43641). SAOCOM 1A can be tracked NOW for your location showing map with azimuth and elevation plus other details from your city location.

Track the satellite on the map from your city or location and see movement details for azimuth, elevation, latitude, longitude, range, height, and movement on the map or in text.







IsCatalogInMostPopularTable: catalog: 43641, numindb: 147
Update: records affected: 1



GetName: 43641 SAOCOM 1A

Hit Count: updated at: Fri, 24 May 2019 21:24:28 GMT